Hourly Data Report for November 03, 2018

TORONTO CITY
ONTARIO
Current Station Operator: ECCC - MSC

43°40'00.000" N
79°24'00.000" W
112.50 m
6158355
71508
XTO

Download Data

Hourly Data (November 2018)
Hourly Data Report for November 3, 2018
TIME
LST
Temp Definition
°C
Dew Point Definition
°C
Rel Hum Definition
%
Precip. Amount Definition
mm

Wind Dir Definition
10's deg

Wind Spd Definition
km/h
Visibility Definition
km
Stn Press Definition
kPa
Hmdx Definition


Wind Chill Definition


Weather Definition


00:00 5.0 2.4 84 0.0 LegendMM LegendMM   99.29     LegendNANA
01:00 5.1 2.6 83 0.0 LegendMM LegendMM   99.31     LegendNANA
02:00 5.0 2.4 83 0.0 LegendMM LegendMM   99.36     LegendNANA
03:00 4.7 2.8 87 0.2 LegendMM LegendMM   99.37     LegendNANA
04:00 4.5 2.2 85 0.0 LegendMM LegendMM   99.41     LegendNANA
05:00 4.3 1.9 84 0.0 LegendMM LegendMM   99.41     LegendNANA
06:00 3.9 1.8 87 0.2 LegendMM LegendMM   99.47     LegendNANA
07:00 3.5 1.6 88 0.8 LegendMM LegendMM   99.54     LegendNANA
08:00 3.7 2.1 89 0.0 LegendMM LegendMM   99.63     LegendNANA
09:00 4.8 2.3 84 0.0 LegendMM LegendMM   99.71     LegendNANA
10:00 5.6 1.6 75 0.0 LegendMM LegendMM   99.82     LegendNANA
11:00 6.4 -0.3 62 0.2 LegendMM LegendMM   99.93     LegendNANA
12:00 7.2 -1.2 55 0.0 LegendMM LegendMM   100.01     LegendNANA
13:00 6.4 -1.1 59 0.0 LegendMM LegendMM   100.11     LegendNANA
14:00 6.7 -0.9 58 0.0 LegendMM LegendMM   100.22     LegendNANA
15:00 7.0 -1.6 55 0.0 LegendMM LegendMM   100.34     LegendNANA
16:00 6.8 -1.7 55 0.0 LegendMM LegendMM   100.50     LegendNANA
17:00 6.5 -1.9 55 0.0 LegendMM LegendMM   100.65     LegendNANA
18:00 5.5 -1.7 60 0.0 LegendMM LegendMM   100.79     LegendNANA
19:00 5.5 -0.7 64 0.0 LegendMM LegendMM   100.92     LegendNANA
20:00 5.5 -1.1 63 0.0 LegendMM LegendMM   101.03     LegendNANA
21:00 5.4 -1.2 62 0.0 LegendMM LegendMM   101.13     LegendNANA
22:00 5.0 -1.6 62 0.0 LegendMM LegendMM   101.17     LegendNANA
23:00 4.2 -1.6 66 0.0 LegendMM LegendMM   101.31     LegendNANA

Notes on Data Quality.

Legend

  • E = Estimated
  • M = Missing
  • NA = Not Available*
  • [empty] = Indicates an unobserved value
Date modified: